Location: Caltech
(34.1382°N, 118.1253°W)
Time: 10:42:19
(UTC-08:00)

A-11 Canister half - All Passes

Search period start: 05 March 2015 00:00
Search period end: 15 March 2015 01:00
Orbit: 1515 x 1685 km, 47.2° (Epoch: 04 March)

Date Brightness Start Highest point End Pass type
(mag) Time Alt. Az. Time Alt. Az. Time Alt. Az.
05 Mar - 02:46:43 10° S 02:54:37 28° SE 03:02:44 10° ENE visible
05 Mar - 04:48:50 10° SW 04:59:01 90° SSE 05:08:57 10° NE visible
05 Mar - 06:55:33 10° W 07:05:00 44° NNW 07:14:08 10° NE daylight
05 Mar - 09:03:03 10° WNW 09:12:05 40° N 09:20:51 10° ENE daylight
05 Mar - 11:08:43 10° NW 11:18:22 74° NNE 11:27:41 10° ESE daylight
05 Mar - 13:14:26 10° WNW 13:22:48 36° SW 13:30:51 10° SSE daylight
06 Mar - 02:24:11 10° S 02:31:44 26° SE 02:39:37 10° ENE visible
06 Mar - 04:25:56 10° SW 04:36:06 86° SE 04:46:03 10° NE visible
06 Mar - 06:32:27 10° W 06:42:00 45° NNW 06:51:12 10° NE daylight
06 Mar - 08:40:01 10° WNW 08:49:04 39° N 08:57:50 10° ENE daylight
06 Mar - 10:45:47 10° NW 10:55:26 71° NNE 11:04:45 10° ESE daylight
06 Mar - 12:51:24 10° WNW 12:59:59 39° SW 13:08:13 10° SSE daylight
07 Mar - 02:01:41 10° S 02:08:53 23° SE 02:16:28 10° ENE visible
07 Mar - 04:03:01 10° SW 04:13:10 82° SE 04:23:08 10° NE visible
07 Mar - 06:09:23 10° W 06:18:59 46° NNW 06:28:16 10° NE daylight
07 Mar - 08:16:59 10° WNW 08:26:03 39° N 08:34:49 10° ENE daylight
07 Mar - 10:22:50 10° NW 10:32:30 68° NNE 10:41:50 10° ESE daylight
07 Mar - 12:28:24 10° WNW 12:37:09 42° SW 12:45:34 10° SSE daylight
08 Mar - 01:39:14 10° S 01:46:01 22° SE 01:53:15 10° E visible
08 Mar - 04:40:07 10° SW 04:50:15 78° SE 05:00:13 10° NE visible
08 Mar - 06:46:18 10° W 06:55:59 48° NNW 07:05:21 10° NE visible
08 Mar - 08:53:57 10° WNW 09:03:01 38° N 09:11:49 10° ENE daylight
08 Mar - 10:59:55 10° NW 11:09:34 65° NNE 11:18:53 10° ESE daylight
08 Mar - 13:05:23 10° WNW 13:14:19 45° SW 13:22:54 10° SSE daylight
09 Mar - 02:16:49 10° SSE 02:23:09 20° SE 02:30:00 10° E visible
09 Mar - 04:17:14 10° SW 04:27:20 74° SE 04:37:18 10° ENE visible
09 Mar - 06:23:13 10° W 06:32:58 50° NNW 06:42:26 10° NE visible
09 Mar - 08:30:54 10° WNW 08:40:00 38° N 08:48:48 10° ENE daylight
09 Mar - 10:36:58 10° NW 10:46:38 62° NNE 10:55:57 10° ESE daylight
09 Mar - 12:42:24 10° WNW 12:51:29 48° SW 13:00:12 10° SSE daylight
10 Mar - 01:54:30 10° SSE 02:00:18 18° SE 02:06:41 10° E visible
10 Mar - 03:54:22 10° SW 04:04:26 70° SE 04:14:22 10° ENE visible
10 Mar - 06:00:09 10° W 06:09:58 51° NNW 06:19:31 10° NE visible
10 Mar - 08:07:51 10° WNW 08:16:58 38° N 08:25:47 10° ENE daylight
10 Mar - 10:14:01 10° NW 10:23:40 60° NNE 10:32:59 10° ESE daylight
10 Mar - 12:19:25 10° WNW 12:28:37 52° SW 12:37:29 10° SSE daylight
11 Mar - 01:32:15 10° SSE 01:37:26 16° SE 01:43:17 10° E visible
11 Mar - 03:31:31 10° SW 03:41:32 66° SE 03:51:26 10° ENE visible
11 Mar - 05:37:05 10° W 05:46:59 53° NNW 05:56:35 10° NE visible
11 Mar - 07:44:48 10° WNW 07:53:55 38° N 08:02:47 10° ENE daylight
11 Mar - 09:51:05 10° NW 10:00:43 57° NNE 10:10:01 10° ESE daylight
11 Mar - 11:56:26 10° WNW 12:05:47 55° SW 12:14:45 10° SSE daylight
11 Mar - 14:07:12 10° WSW 14:09:31 11° WSW 14:10:58 10° SW daylight
12 Mar - 01:10:08 10° SSE 01:14:34 14° SE 01:19:46 10° E visible
12 Mar - 03:08:41 10° SSW 03:18:37 62° SE 03:28:30 10° ENE visible
12 Mar - 05:14:02 10° WSW 05:23:59 55° NNW 05:33:40 10° NE visible
12 Mar - 07:21:43 10° WNW 07:30:53 38° N 07:39:47 10° ENE daylight
12 Mar - 09:28:07 10° NW 09:37:45 55° NNE 09:47:03 10° ESE daylight
12 Mar - 11:33:28 10° WNW 11:42:56 59° SW 11:52:00 10° SSE daylight
12 Mar - 13:42:57 10° W 13:46:41 12° SW 13:49:39 10° SW daylight
13 Mar - 00:48:11 10° SE 00:51:42 13° SE 00:56:05 10° E visible
13 Mar - 02:45:53 10° SSW 02:55:43 58° SE 03:05:32 10° ENE visible
13 Mar - 04:50:59 10° WSW 05:00:59 58° NNW 05:10:46 10° NE visible
13 Mar - 06:58:39 10° WNW 07:07:51 38° N 07:16:47 10° ENE daylight
13 Mar - 09:05:10 10° NW 09:14:47 53° NNE 09:24:03 10° E daylight
13 Mar - 11:10:30 10° WNW 11:20:04 63° SW 11:29:14 10° SE daylight
13 Mar - 13:19:12 10° W 13:23:52 14° SW 13:27:47 10° SSW daylight
14 Mar - 00:26:37 10° SE 00:28:51 11° ESE 00:32:03 10° ESE night (unlit)
14 Mar - 02:23:05 10° SSW 02:32:49 55° SE 02:42:34 10° ENE visible
14 Mar - 04:27:57 10° WSW 04:38:00 60° NNW 04:47:50 10° NE visible
14 Mar - 06:35:35 10° WNW 06:44:48 38° N 06:53:47 10° ENE visible
14 Mar - 08:42:11 10° NW 08:51:48 51° NNE 09:01:04 10° E daylight
14 Mar - 10:47:32 10° WNW 10:57:11 67° SW 11:06:27 10° SE daylight
14 Mar - 12:55:40 10° W 13:01:02 16° SW 13:05:43 10° SSW daylight
